status,avgMeasuredTime,avgSpeed,extID,medianMeasuredTime,TIMESTAMP,vehicleCount,_id,REPORT_ID
OK,34,53,944,34,2014-08-01T08:00:00,5,20746999,181168
OK,46,39,944,46,2014-08-01T08:10:00,5,20747821,181168
OK,42,43,944,42,2014-08-01T08:15:00,8,20748270,181168
OK,37,48,944,37,2014-08-01T08:20:00,10,20748719,181168
OK,39,46,944,39,2014-08-01T08:25:00,12,20749168,181168
OK,47,38,944,47,2014-08-01T08:30:00,12,20749617,181168
OK,45,40,944,45,2014-08-01T08:35:00,5,20750066,181168
OK,48,37,944,48,2014-08-01T08:40:00,7,20750515,181168
OK,49,36,944,49,2014-08-01T08:45:00,20,20750964,181168
OK,50,36,944,50,2014-08-01T08:50:00,19,20751413,181168
OK,44,41,944,44,2014-08-01T08:55:00,9,20751862,181168
OK,48,37,944,48,2014-08-01T09:00:00,12,20752311,181168
OK,44,41,944,44,2014-08-01T09:05:00,11,20752760,181168
OK,43,42,944,43,2014-08-01T09:10:00,7,20753209,181168
OK,43,42,944,43,2014-08-01T09:20:00,12,20754107,181168
OK,39,46,944,39,2014-08-01T09:25:00,11,20754556,181168
OK,40,45,944,40,2014-08-01T09:30:00,10,20755005,181168
OK,40,45,944,40,2014-08-01T09:35:00,10,20755454,181168
OK,39,46,944,39,2014-08-01T09:40:00,9,20755903,181168
OK,41,44,944,41,2014-08-01T09:45:00,10,20756352,181168
OK,43,42,944,43,2014-08-01T09:50:00,13,20756801,181168
OK,43,42,944,43,2014-08-01T09:55:00,18,20757250,181168
OK,45,40,944,45,2014-08-01T10:00:00,16,20757699,181168
OK,45,40,944,45,2014-08-01T10:05:00,11,20758148,181168
OK,50,36,944,50,2014-08-01T10:15:00,2,20759046,181168
OK,38,47,944,38,2014-08-01T10:20:00,9,20759495,181168
OK,45,40,944,45,2014-08-01T10:25:00,16,20759944,181168
OK,53,34,944,53,2014-08-01T10:30:00,9,20760393,181168
OK,47,38,944,47,2014-08-01T10:35:00,8,20760842,181168
OK,50,36,944,50,2014-08-01T10:40:00,19,20761291,181168
OK,50,36,944,50,2014-08-01T10:45:00,21,20761740,181168
OK,53,34,944,53,2014-08-01T10:50:00,16,20762189,181168
OK,52,34,944,52,2014-08-01T10:55:00,10,20762638,181168
OK,43,42,944,43,2014-08-01T11:00:00,14,20763087,181168
OK,44,41,944,44,2014-08-01T11:05:00,17,20763536,181168
OK,43,42,944,43,2014-08-01T11:10:00,16,20763985,181168
OK,49,36,944,49,2014-08-01T11:15:00,15,20764433,181168
OK,50,36,944,50,2014-08-01T11:20:00,6,20764882,181168
OK,45,40,944,45,2014-08-01T11:25:00,11,20765331,181168
OK,45,40,944,45,2014-08-01T11:30:00,19,20765780,181168
OK,41,44,944,41,2014-08-01T11:35:00,20,20766229,181168
OK,44,41,944,44,2014-08-01T11:40:00,20,20766678,181168
OK,47,38,944,47,2014-08-01T11:45:00,15,20767127,181168
OK,45,40,944,45,2014-08-01T11:50:00,8,20767576,181168
OK,46,39,944,46,2014-08-01T11:55:00,11,20768025,181168
OK,45,40,944,45,2014-08-01T12:00:00,10,20768474,181168
OK,46,39,944,46,2014-08-01T12:10:00,12,20769372,181168
OK,49,36,944,49,2014-08-01T12:15:00,13,20769821,181168
OK,49,36,944,49,2014-08-01T12:20:00,12,20770270,181168
OK,64,28,944,64,2014-08-01T12:25:00,10,20770719,181168
OK,68,26,944,68,2014-08-01T12:30:00,11,20771168,181168
OK,64,28,944,64,2014-08-01T12:35:00,14,20771617,181168
OK,63,28,944,63,2014-08-01T12:40:00,16,20772066,181168
OK,61,29,944,61,2014-08-01T12:45:00,9,20772515,181168
OK,68,26,944,68,2014-08-01T12:50:00,8,20772964,181168
OK,62,29,944,62,2014-08-01T12:55:00,13,20773413,181168
OK,52,34,944,52,2014-08-01T13:00:00,12,20773862,181168
OK,64,28,944,64,2014-08-01T13:05:00,12,20774311,181168
OK,53,34,944,53,2014-08-01T13:10:00,10,20774760,181168
OK,57,31,944,57,2014-08-01T13:15:00,11,20775209,181168
OK,60,30,944,60,2014-08-01T13:20:00,16,20775658,181168
OK,62,29,944,62,2014-08-01T13:25:00,18,20776107,181168
OK,68,26,944,68,2014-08-01T13:30:00,14,20776556,181168
OK,64,28,944,64,2014-08-01T13:35:00,7,20777005,181168
OK,63,28,944,63,2014-08-01T13:40:00,7,20777454,181168
OK,63,28,944,63,2014-08-01T13:45:00,10,20777903,181168
OK,57,31,944,57,2014-08-01T13:50:00,11,20778352,181168
OK,64,28,944,64,2014-08-01T14:00:00,14,20779250,181168
OK,63,28,944,63,2014-08-01T14:05:00,12,20779699,181168
OK,66,27,944,66,2014-08-01T14:10:00,5,20780148,181168
OK,54,33,944,54,2014-08-01T14:15:00,6,20780597,181168
OK,46,39,944,46,2014-08-01T14:20:00,7,20781046,181168
OK,51,35,944,51,2014-08-01T14:25:00,4,20781495,181168
OK,64,28,944,64,2014-08-01T14:30:00,5,20781944,181168
OK,64,28,944,64,2014-08-01T14:35:00,3,20782393,181168
OK,51,35,944,51,2014-08-01T14:40:00,9,20782842,181168
OK,52,34,944,52,2014-08-01T14:45:00,13,20783291,181168
OK,53,34,944,53,2014-08-01T14:50:00,12,20783740,181168
OK,53,34,944,53,2014-08-01T15:00:00,10,20784638,181168
OK,57,31,944,57,2014-08-01T15:05:00,8,20785087,181168
OK,49,36,944,49,2014-08-01T15:10:00,8,20785536,181168
OK,40,45,944,40,2014-08-01T15:15:00,7,20785985,181168
OK,42,43,944,42,2014-08-01T15:20:00,7,20786434,181168
OK,42,43,944,42,2014-08-01T15:25:00,7,20786883,181168
OK,42,43,944,42,2014-08-01T15:30:00,7,20787332,181168
OK,48,37,944,48,2014-08-01T15:35:00,6,20787781,181168
OK,49,36,944,49,2014-08-01T15:40:00,3,20788230,181168
OK,54,33,944,54,2014-08-01T15:45:00,4,20788679,181168
OK,56,32,944,56,2014-08-01T15:50:00,6,20789128,181168
OK,49,36,944,49,2014-08-01T15:55:00,10,20789577,181168
OK,49,36,944,49,2014-08-01T16:00:00,13,20790026,181168
OK,49,36,944,49,2014-08-01T16:05:00,7,20790475,181168
OK,46,39,944,46,2014-08-01T16:10:00,7,20790924,181168
OK,46,39,944,46,2014-08-01T16:15:00,7,20791373,181168
OK,47,38,944,47,2014-08-01T16:20:00,9,20791822,181168
OK,47,38,944,47,2014-08-01T16:25:00,7,20792271,181168
OK,69,26,944,69,2014-08-01T16:30:00,1,20792720,181168
OK,48,37,944,48,2014-08-01T16:35:00,4,20793169,181168
OK,46,39,944,46,2014-08-01T16:40:00,3,20793618,181168
OK,36,50,944,36,2014-08-01T16:45:00,1,20794067,181168
OK,38,47,944,38,2014-08-01T16:50:00,2,20794516,181168
OK,45,40,944,45,2014-08-01T16:55:00,3,20794965,181168
OK,52,34,944,52,2014-08-01T17:00:00,3,20795414,181168
OK,44,41,944,44,2014-08-01T17:05:00,3,20795863,181168
OK,45,40,944,45,2014-08-01T17:10:00,5,20796312,181168
OK,53,34,944,53,2014-08-01T17:15:00,7,20796761,181168
OK,44,41,944,44,2014-08-01T17:20:00,4,20797210,181168
OK,35,51,944,35,2014-08-01T17:25:00,3,20797659,181168
OK,29,62,944,29,2014-08-01T17:30:00,11,20798108,181168
OK,35,51,944,35,2014-08-01T17:35:00,9,20798557,181168
OK,43,42,944,43,2014-08-01T17:40:00,6,20799006,181168
OK,47,38,944,47,2014-08-01T17:45:00,8,20799455,181168
OK,35,51,944,35,2014-08-01T17:50:00,9,20799904,181168
OK,39,46,944,39,2014-08-01T17:55:00,5,20800353,181168
OK,36,50,944,36,2014-08-01T18:00:00,3,20800802,181168
OK,41,44,944,41,2014-08-01T18:05:00,5,20801251,181168
OK,52,34,944,52,2014-08-01T18:10:00,3,20801700,181168
OK,52,34,944,52,2014-08-01T18:15:00,1,20802149,181168
OK,34,53,944,34,2014-08-01T18:20:00,2,20802598,181168
OK,52,34,944,52,2014-08-01T18:25:00,4,20803047,181168
OK,63,28,944,63,2014-08-01T18:30:00,3,20803496,181168
OK,28,64,944,28,2014-08-01T18:35:00,3,20803945,181168
OK,26,69,944,26,2014-08-01T18:40:00,2,20804394,181168
OK,39,46,944,39,2014-08-01T18:45:00,2,20804843,181168
OK,39,46,944,39,2014-08-01T18:50:00,2,20805292,181168
OK,51,35,944,51,2014-08-01T18:55:00,0,20805741,181168
OK,51,35,944,51,2014-08-01T19:00:00,0,20806190,181168
OK,51,35,944,51,2014-08-01T19:05:00,0,20806639,181168
OK,33,54,944,33,2014-08-01T19:10:00,2,20807088,181168
OK,29,62,944,29,2014-08-01T19:15:00,2,20807537,181168
OK,31,58,944,31,2014-08-01T19:20:00,3,20807986,181168
OK,44,41,944,44,2014-08-01T19:25:00,2,20808435,181168
OK,51,35,944,51,2014-08-01T19:30:00,3,20808884,181168
OK,60,30,944,60,2014-08-01T19:35:00,2,20809333,181168
OK,43,42,944,43,2014-08-01T19:40:00,3,20809782,181168
OK,37,48,944,37,2014-08-01T19:45:00,5,20810231,181168
OK,36,50,944,36,2014-08-01T19:50:00,0,20810680,181168
OK,37,48,944,37,2014-08-01T19:55:00,4,20811129,181168
OK,36,50,944,36,2014-08-01T22:00:00,0,20816858,181168
OK,36,50,944,36,2014-08-02T00:00:00,0,20823297,181168
OK,36,50,944,36,2014-08-02T00:05:00,0,20823746,181168
OK,36,50,944,36,2014-08-02T00:10:00,0,20824195,181168
OK,36,50,944,36,2014-08-02T00:15:00,0,20824644,181168
OK,48,37,944,48,2014-08-02T00:20:00,1,20825093,181168
OK,48,37,944,48,2014-08-02T00:25:00,0,20825542,181168
OK,48,37,944,48,2014-08-02T00:30:00,0,20825991,181168
OK,48,37,944,48,2014-08-02T00:35:00,0,20826440,181168
OK,48,37,944,48,2014-08-02T00:40:00,0,20826889,181168
OK,48,37,944,48,2014-08-02T00:45:00,0,20827338,181168
OK,48,37,944,48,2014-08-02T00:50:00,0,20827787,181168
OK,48,37,944,48,2014-08-02T00:55:00,0,20828236,181168
OK,48,37,944,48,2014-08-02T01:00:00,0,20828685,181168
OK,33,54,944,33,2014-08-02T01:05:00,1,20829134,181168
OK,33,54,944,33,2014-08-02T01:10:00,1,20829583,181168
OK,33,54,944,33,2014-08-02T01:15:00,0,20830032,181168
OK,33,54,944,33,2014-08-02T01:20:00,0,20830481,181168
OK,33,54,944,33,2014-08-02T01:25:00,0,20830930,181168
OK,33,54,944,33,2014-08-02T01:30:00,0,20831379,181168
OK,33,54,944,33,2014-08-02T01:35:00,0,20831828,181168
OK,22,82,944,22,2014-08-02T01:40:00,1,20832277,181168
OK,22,82,944,22,2014-08-02T01:45:00,0,20832726,181168
OK,22,82,944,22,2014-08-02T01:50:00,0,20833175,181168
OK,22,82,944,22,2014-08-02T01:55:00,0,20833624,181168
OK,22,82,944,22,2014-08-02T02:00:00,0,20834073,181168
OK,27,67,944,27,2014-08-02T02:05:00,3,20834522,181168
OK,27,67,944,27,2014-08-02T02:10:00,3,20834971,181168
OK,29,62,944,29,2014-08-02T02:15:00,0,20835420,181168
OK,29,62,944,29,2014-08-02T02:20:00,0,20835869,181168
OK,30,60,944,30,2014-08-02T02:25:00,1,20836318,181168
OK,30,60,944,30,2014-08-02T02:30:00,1,20836767,181168
OK,30,60,944,30,2014-08-02T02:35:00,0,20837216,181168
OK,30,60,944,30,2014-08-02T02:40:00,0,20837665,181168
OK,47,38,944,47,2014-08-02T02:45:00,1,20838114,181168
OK,47,38,944,47,2014-08-02T02:50:00,0,20838563,181168
OK,26,69,944,26,2014-08-02T02:55:00,1,20839012,181168
OK,26,69,944,26,2014-08-02T03:00:00,0,20839461,181168
OK,26,69,944,26,2014-08-02T03:05:00,0,20839910,181168
OK,25,72,944,25,2014-08-02T03:10:00,1,20840359,181168
OK,25,72,944,25,2014-08-02T03:15:00,1,20840808,181168
OK,25,72,944,25,2014-08-02T03:20:00,0,20841257,181168
OK,25,72,944,25,2014-08-02T03:25:00,0,20841706,181168
OK,25,72,944,25,2014-08-02T03:30:00,0,20842155,181168
OK,25,72,944,25,2014-08-02T03:35:00,0,20842604,181168
OK,24,75,944,24,2014-08-02T03:40:00,2,20843053,181168
OK,27,67,944,27,2014-08-02T03:45:00,2,20843502,181168
OK,28,64,944,28,2014-08-02T03:50:00,2,20843951,181168
OK,22,82,944,22,2014-08-02T03:55:00,1,20844400,181168
OK,37,48,944,37,2014-08-02T06:00:00,2,20851854,181168
OK,34,53,944,34,2014-08-02T06:05:00,3,20852303,181168
OK,48,37,944,48,2014-08-02T06:10:00,2,20852752,181168
OK,63,28,944,63,2014-08-02T06:15:00,1,20853201,181168
OK,48,37,944,48,2014-08-02T06:20:00,3,20853650,181168
OK,37,48,944,37,2014-08-02T06:25:00,5,20854099,181168
OK,37,48,944,37,2014-08-02T06:30:00,3,20854548,181168
OK,69,26,944,69,2014-08-02T06:35:00,3,20854997,181168
OK,69,26,944,69,2014-08-02T06:40:00,3,20855446,181168
OK,44,41,944,44,2014-08-02T06:45:00,2,20855895,181168
OK,44,41,944,44,2014-08-02T06:50:00,5,20856344,181168
OK,50,36,944,50,2014-08-02T06:55:00,2,20856793,181168
OK,44,41,944,44,2014-08-02T07:00:00,0,20857242,181168
OK,32,56,944,32,2014-08-02T07:05:00,1,20857691,181168
OK,35,51,944,35,2014-08-02T07:10:00,3,20858140,181168
OK,54,33,944,54,2014-08-02T07:15:00,2,20858589,181168
OK,46,39,944,46,2014-08-02T07:20:00,3,20859038,181168
OK,38,47,944,38,2014-08-02T07:25:00,7,20859487,181168
OK,40,45,944,40,2014-08-02T07:30:00,8,20859936,181168
OK,60,30,944,60,2014-08-02T07:35:00,7,20860385,181168
OK,41,44,944,41,2014-08-02T07:40:00,2,20860834,181168
OK,44,41,944,44,2014-08-02T07:45:00,5,20861283,181168
OK,44,41,944,44,2014-08-02T07:50:00,7,20861732,181168
OK,50,36,944,50,2014-08-02T07:55:00,5,20862181,181168
OK,53,34,944,53,2014-08-02T08:00:00,7,20862630,181168
OK,41,44,944,41,2014-08-02T08:05:00,10,20863079,181168
OK,39,46,944,39,2014-08-02T08:10:00,9,20863528,181168
OK,39,46,944,39,2014-08-02T08:15:00,5,20863977,181168
OK,47,38,944,47,2014-08-02T08:20:00,4,20864426,181168
OK,54,33,944,54,2014-08-02T08:25:00,5,20864875,181168
OK,47,38,944,47,2014-08-02T08:30:00,5,20865324,181168
OK,43,42,944,43,2014-08-02T08:35:00,7,20865773,181168
OK,46,39,944,46,2014-08-02T08:40:00,8,20866222,181168
OK,41,44,944,41,2014-08-02T08:45:00,7,20866671,181168
OK,45,40,944,45,2014-08-02T08:50:00,6,20867120,181168
OK,53,34,944,53,2014-08-02T08:55:00,3,20867569,181168
OK,53,34,944,53,2014-08-02T09:00:00,0,20868018,181168
OK,42,43,944,42,2014-08-02T09:05:00,4,20868467,181168
OK,43,42,944,43,2014-08-02T09:10:00,7,20868916,181168
OK,64,28,944,64,2014-08-02T09:15:00,6,20869365,181168
OK,63,28,944,63,2014-08-02T09:20:00,11,20869814,181168
OK,60,30,944,60,2014-08-02T09:25:00,13,20870263,181168
OK,55,32,944,55,2014-08-02T09:30:00,10,20870712,181168
OK,63,28,944,63,2014-08-02T09:35:00,5,20871161,181168
OK,67,27,944,67,2014-08-02T09:40:00,3,20871610,181168
OK,65,27,944,65,2014-08-02T09:45:00,3,20872059,181168
OK,70,25,944,70,2014-08-02T09:50:00,4,20872508,181168
OK,67,27,944,67,2014-08-02T09:55:00,9,20872957,181168
OK,62,29,944,62,2014-08-02T10:00:00,8,20873406,181168
OK,58,31,944,58,2014-08-02T10:05:00,11,20873855,181168
OK,57,31,944,57,2014-08-02T10:10:00,13,20874304,181168
OK,58,31,944,58,2014-08-02T10:15:00,13,20874753,181168
OK,59,30,944,59,2014-08-02T10:20:00,10,20875202,181168
OK,58,31,944,58,2014-08-02T10:25:00,10,20875651,181168
OK,51,35,944,51,2014-08-02T10:30:00,11,20876100,181168
OK,51,35,944,51,2014-08-02T10:35:00,10,20876549,181168
OK,66,27,944,66,2014-08-02T10:40:00,16,20876998,181168
OK,67,27,944,67,2014-08-02T10:45:00,13,20877447,181168
OK,61,29,944,61,2014-08-02T10:50:00,10,20877896,181168
OK,61,29,944,61,2014-08-02T10:55:00,6,20878345,181168
OK,72,25,944,72,2014-08-02T11:00:00,5,20878794,181168
OK,70,25,944,70,2014-08-02T11:05:00,6,20879243,181168
OK,66,27,944,66,2014-08-02T11:10:00,8,20879692,181168
OK,63,28,944,63,2014-08-02T11:15:00,10,20880141,181168
OK,42,43,944,42,2014-08-02T11:20:00,7,20880590,181168
OK,56,32,944,56,2014-08-02T11:25:00,5,20881039,181168
OK,48,37,944,48,2014-08-02T11:30:00,5,20881488,181168
OK,61,29,944,61,2014-08-02T11:35:00,4,20881937,181168
OK,56,32,944,56,2014-08-02T11:40:00,9,20882386,181168
OK,50,36,944,50,2014-08-02T11:45:00,8,20882835,181168
OK,55,32,944,55,2014-08-02T11:50:00,13,20883284,181168
OK,50,36,944,50,2014-08-02T11:55:00,13,20883733,181168
OK,46,39,944,46,2014-08-02T12:00:00,7,20884182,181168
OK,34,53,944,34,2014-08-02T12:05:00,2,20884631,181168
OK,65,27,944,65,2014-08-02T12:10:00,6,20885080,181168
OK,69,26,944,69,2014-08-02T12:15:00,7,20885529,181168
OK,52,34,944,52,2014-08-02T12:20:00,9,20885978,181168
OK,62,29,944,62,2014-08-02T12:25:00,11,20886427,181168
OK,63,28,944,63,2014-08-02T12:30:00,7,20886876,181168
OK,63,28,944,63,2014-08-02T12:35:00,6,20887325,181168
OK,36,50,944,36,2014-08-02T12:40:00,9,20887774,181168
OK,36,50,944,36,2014-08-02T12:45:00,8,20888223,181168
OK,40,45,944,40,2014-08-02T12:50:00,8,20888672,181168
OK,33,54,944,33,2014-08-02T12:55:00,6,20889121,181168
OK,32,56,944,32,2014-08-02T13:00:00,3,20889570,181168
OK,32,56,944,32,2014-08-02T13:05:00,4,20890019,181168
OK,32,56,944,32,2014-08-02T13:10:00,3,20890468,181168
OK,35,51,944,35,2014-08-02T13:15:00,1,20890917,181168
OK,48,37,944,48,2014-08-02T13:20:00,3,20891366,181168
OK,46,39,944,46,2014-08-02T13:25:00,7,20891815,181168
OK,44,41,944,44,2014-08-02T13:30:00,8,20892264,181168
OK,38,47,944,38,2014-08-02T13:35:00,6,20892713,181168
OK,37,48,944,37,2014-08-02T13:40:00,2,20893162,181168
OK,36,50,944,36,2014-08-02T13:45:00,11,20893611,181168
OK,36,50,944,36,2014-08-02T13:50:00,15,20894060,181168
OK,35,51,944,35,2014-08-02T13:55:00,3,20894509,181168
OK,43,42,944,43,2014-08-02T14:00:00,2,20894958,181168
OK,30,60,944,30,2014-08-02T14:05:00,4,20895407,181168
OK,32,56,944,32,2014-08-02T14:10:00,3,20895856,181168
OK,41,44,944,41,2014-08-02T14:15:00,3,20896305,181168
OK,42,43,944,42,2014-08-02T14:20:00,5,20896754,181168
OK,41,44,944,41,2014-08-02T14:25:00,6,20897203,181168
OK,47,38,944,47,2014-08-02T14:30:00,5,20897652,181168
OK,48,37,944,48,2014-08-02T14:35:00,7,20898101,181168
OK,57,31,944,57,2014-08-02T14:40:00,2,20898550,181168
OK,70,25,944,70,2014-08-02T14:45:00,2,20898999,181168
OK,48,37,944,48,2014-08-02T14:50:00,4,20899448,181168
OK,46,39,944,46,2014-08-02T14:55:00,3,20899897,181168
OK,38,47,944,38,2014-08-02T15:00:00,2,20900346,181168
OK,35,51,944,35,2014-08-02T15:05:00,3,20900795,181168
OK,33,54,944,33,2014-08-02T15:10:00,6,20901244,181168
OK,37,48,944,37,2014-08-02T15:15:00,9,20901693,181168
OK,56,32,944,56,2014-08-02T15:20:00,6,20902142,181168
OK,57,31,944,57,2014-08-02T15:25:00,1,20902591,181168
OK,39,46,944,39,2014-08-02T15:30:00,8,20903040,181168
OK,40,45,944,40,2014-08-02T15:35:00,9,20903489,181168
OK,43,42,944,43,2014-08-02T15:40:00,12,20903938,181168
OK,44,41,944,44,2014-08-02T15:45:00,13,20904387,181168
OK,42,43,944,42,2014-08-02T15:50:00,12,20904836,181168
OK,41,44,944,41,2014-08-02T15:55:00,5,20905285,181168
OK,41,44,944,41,2014-08-02T16:00:00,3,20905734,181168
OK,31,58,944,31,2014-08-02T16:05:00,6,20906183,181168
OK,25,72,944,25,2014-08-02T16:10:00,3,20906632,181168
OK,36,50,944,36,2014-08-02T16:15:00,2,20907081,181168
OK,41,44,944,41,2014-08-02T16:20:00,3,20907530,181168
OK,40,45,944,40,2014-08-02T16:25:00,3,20907979,181168
OK,34,53,944,34,2014-08-02T16:30:00,5,20908428,181168
OK,34,53,944,34,2014-08-02T16:35:00,5,20908877,181168
OK,51,35,944,51,2014-08-02T16:40:00,5,20909326,181168
OK,40,45,944,40,2014-08-02T16:45:00,8,20909775,181168
OK,36,50,944,36,2014-08-02T16:50:00,5,20910224,181168
OK,40,45,944,40,2014-08-02T16:55:00,4,20910673,181168
OK,36,50,944,36,2014-08-02T17:00:00,4,20911122,181168
OK,40,45,944,40,2014-08-02T17:05:00,2,20911571,181168
OK,33,54,944,33,2014-08-02T17:10:00,5,20912020,181168
OK,36,50,944,36,2014-08-02T17:15:00,3,20912469,181168
OK,84,21,944,84,2014-08-02T17:20:00,2,20912918,181168
OK,43,42,944,43,2014-08-02T17:25:00,1,20913367,181168
OK,29,62,944,29,2014-08-02T17:30:00,3,20913816,181168
OK,29,62,944,29,2014-08-02T17:35:00,0,20914265,181168
OK,64,28,944,64,2014-08-02T17:40:00,3,20914714,181168
OK,44,41,944,44,2014-08-02T17:45:00,7,20915163,181168
OK,40,45,944,40,2014-08-02T17:50:00,4,20915612,181168
OK,24,75,944,24,2014-08-02T17:55:00,1,20916061,181168
OK,35,51,944,35,2014-08-02T18:00:00,3,20916510,181168
OK,35,51,944,35,2014-08-02T18:05:00,5,20916959,181168
OK,33,54,944,33,2014-08-02T18:10:00,4,20917408,181168
OK,40,45,944,40,2014-08-02T18:15:00,3,20917857,181168
OK,54,33,944,54,2014-08-02T18:20:00,6,20918306,181168
OK,46,39,944,46,2014-08-02T18:25:00,5,20918755,181168
OK,40,45,944,40,2014-08-02T18:30:00,3,20919204,181168
OK,46,39,944,46,2014-08-02T18:35:00,2,20919653,181168
OK,39,46,944,39,2014-08-02T18:40:00,2,20920102,181168
OK,46,39,944,46,2014-08-02T18:45:00,3,20920551,181168
OK,46,39,944,46,2014-08-02T18:50:00,3,20921000,181168
OK,34,53,944,34,2014-08-02T18:55:00,2,20921449,181168
OK,31,58,944,31,2014-08-02T19:00:00,3,20921898,181168
OK,31,58,944,31,2014-08-02T19:05:00,3,20922347,181168
OK,94,19,944,94,2014-08-02T19:10:00,1,20922796,181168
OK,46,39,944,46,2014-08-02T19:15:00,2,20923245,181168
OK,39,46,944,39,2014-08-02T19:20:00,4,20923694,181168
OK,33,54,944,33,2014-08-02T19:25:00,3,20924143,181168
OK,35,51,944,35,2014-08-02T19:30:00,5,20924592,181168
OK,35,51,944,35,2014-08-02T19:35:00,4,20925041,181168
OK,32,56,944,32,2014-08-02T19:40:00,1,20925490,181168
OK,32,56,944,32,2014-08-02T19:45:00,3,20925939,181168
OK,40,45,944,40,2014-08-02T19:50:00,4,20926388,181168
OK,40,45,944,40,2014-08-02T19:55:00,2,20926837,181168
OK,35,51,944,35,2014-08-02T20:00:00,0,20927286,181168
OK,32,56,944,32,2014-08-02T20:05:00,3,20927735,181168
OK,32,56,944,32,2014-08-02T20:10:00,3,20928184,181168
OK,34,53,944,34,2014-08-02T20:15:00,5,20928633,181168
OK,33,54,944,33,2014-08-02T20:20:00,8,20929082,181168
OK,31,58,944,31,2014-08-02T20:25:00,4,20929531,181168
OK,40,45,944,40,2014-08-02T20:30:00,3,20929980,181168
OK,40,45,944,40,2014-08-02T20:35:00,3,20930429,181168
OK,41,44,944,41,2014-08-02T20:40:00,0,20930878,181168
OK,61,29,944,61,2014-08-02T20:45:00,1,20931327,181168
OK,61,29,944,61,2014-08-02T20:50:00,3,20931776,181168
OK,31,58,944,31,2014-08-02T20:55:00,3,20932225,181168
OK,31,58,944,31,2014-08-02T21:00:00,1,20932674,181168
OK,31,58,944,31,2014-08-02T21:05:00,0,20933123,181168
OK,31,58,944,31,2014-08-02T21:10:00,1,20933572,181168
OK,31,58,944,31,2014-08-02T21:15:00,3,20934021,181168
OK,31,58,944,31,2014-08-02T21:20:00,0,20934470,181168
OK,57,31,944,57,2014-08-02T21:25:00,2,20934919,181168
OK,42,43,944,42,2014-08-02T21:30:00,5,20935368,181168
OK,38,47,944,38,2014-08-02T21:35:00,3,20935817,181168
OK,38,47,944,38,2014-08-02T21:40:00,0,20936266,181168
OK,38,47,944,38,2014-08-02T21:45:00,0,20936715,181168
OK,31,58,944,31,2014-08-02T21:50:00,1,20937164,181168
OK,31,58,944,31,2014-08-02T21:55:00,1,20937613,181168
OK,31,58,944,31,2014-08-02T22:00:00,0,20938062,181168
OK,31,58,944,31,2014-08-02T22:05:00,0,20938511,181168
OK,31,58,944,31,2014-08-02T22:10:00,0,20938960,181168
OK,34,53,944,34,2014-08-02T22:15:00,3,20939409,181168
OK,30,60,944,30,2014-08-02T22:20:00,4,20939858,181168
OK,26,69,944,26,2014-08-02T22:25:00,0,20940307,181168
OK,29,62,944,29,2014-08-02T22:30:00,1,20940756,181168
OK,29,62,944,29,2014-08-02T22:35:00,1,20941205,181168
OK,37,48,944,37,2014-08-02T22:40:00,3,20941654,181168
OK,31,58,944,31,2014-08-02T22:45:00,3,20942103,181168
OK,28,64,944,28,2014-08-02T22:50:00,2,20942552,181168
OK,37,48,944,37,2014-08-02T22:55:00,1,20943001,181168
OK,37,48,944,37,2014-08-02T23:00:00,0,20943450,181168
OK,29,62,944,29,2014-08-02T23:10:00,3,20943899,181168
OK,47,38,944,47,2014-08-02T23:15:00,1,20944348,181168
OK,40,45,944,40,2014-08-02T23:20:00,2,20944797,181168
OK,33,54,944,33,2014-08-02T23:25:00,1,20945246,181168
OK,41,44,944,41,2014-08-02T23:30:00,2,20945695,181168
OK,48,37,944,48,2014-08-02T23:35:00,1,20946144,181168
OK,31,58,944,31,2014-08-02T23:40:00,1,20946593,181168
OK,31,58,944,31,2014-08-02T23:45:00,0,20947042,181168
OK,31,58,944,31,2014-08-02T23:50:00,0,20947491,181168
OK,31,58,944,31,2014-08-02T23:55:00,0,20947940,181168
OK,31,58,944,31,2014-08-03T00:00:00,0,20948389,181168
OK,31,58,944,31,2014-08-03T00:05:00,0,20948838,181168
OK,39,46,944,39,2014-08-03T00:10:00,2,20949286,181168
OK,39,46,944,39,2014-08-03T00:15:00,2,20949735,181168
OK,38,47,944,38,2014-08-03T00:20:00,0,20950184,181168
OK,38,47,944,38,2014-08-03T00:25:00,0,20950633,181168
OK,38,47,944,38,2014-08-03T00:30:00,0,20951082,181168
OK,36,50,944,36,2014-08-03T00:35:00,0,20951531,181168
OK,36,50,944,36,2014-08-03T00:40:00,0,20951980,181168
OK,36,50,944,36,2014-08-03T00:45:00,0,20952429,181168
OK,36,50,944,36,2014-08-03T00:50:00,0,20952878,181168
OK,81,22,944,81,2014-08-03T00:55:00,1,20953327,181168
OK,40,45,944,40,2014-08-03T01:00:00,2,20953776,181168
OK,50,36,944,50,2014-08-03T01:05:00,1,20954225,181168
OK,50,36,944,50,2014-08-03T01:10:00,0,20954674,181168
OK,50,36,944,50,2014-08-03T01:15:00,0,20955123,181168
OK,50,36,944,50,2014-08-03T01:20:00,0,20955572,181168
OK,29,62,944,29,2014-08-03T01:25:00,1,20956021,181168
OK,33,54,944,33,2014-08-03T01:30:00,2,20956470,181168
OK,37,48,944,37,2014-08-03T01:35:00,0,20956919,181168
OK,37,48,944,37,2014-08-03T01:40:00,0,20957368,181168
OK,37,48,944,37,2014-08-03T01:45:00,0,20957817,181168
OK,37,48,944,37,2014-08-03T01:50:00,0,20958266,181168
OK,37,48,944,37,2014-08-03T01:55:00,0,20958715,181168
OK,47,38,944,47,2014-08-03T02:00:00,1,20959164,181168
OK,47,38,944,47,2014-08-03T02:05:00,1,20959613,181168
OK,47,38,944,47,2014-08-03T02:10:00,0,20960062,181168
OK,22,82,944,22,2014-08-03T02:15:00,1,20960511,181168
OK,22,82,944,22,2014-08-03T02:20:00,1,20960960,181168
OK,22,82,944,22,2014-08-03T02:25:00,0,20961409,181168
OK,26,69,944,26,2014-08-03T02:30:00,1,20961858,181168